Flag Weather past 2 weeks in Stonewall, Manitoba, Canada

Now
7 °F

Passing clouds.


Feels Like: -9 °F
Forecast: 10 / 26 °F
Wind: 12 mph from South

Location: Winnipeg Int. Airportman.

Current Time: Nov 20, 2014 at 6:14:22 PM

Latest Report: Nov 20, 2014 at 5:00 PM


Visibility: 15 mi

Pressure: 30.16 "Hg

Humidity: 72%

Dew point: 0 °F

Location of StonewallLocation

Historic Weather in Stonewall — Graph

°F

Stonewall temperature yesterday

Maximum temperature yesterday: 19 °F (at 3:00 AM)
Minimum temperature yesterday: -2 °F (at 11:00 PM)
Average temperature yesterday: 14 °F

Past Weeks' High & Low Weather Summary

 TemperatureHumidityPressure
High45 °F (Nov 7, 12:00 PM)93% (Nov 7, 2:00 PM)30.56 "Hg (Nov 7, 2:00 PM)
Low-9 °F (Nov 20, 7:00 AM)40% (Nov 8, 1:00 PM)29.47 "Hg (Nov 7, 11:00 AM)
Average17 °F74%30.11 "Hg
* Reported Nov 5 5:00 PM — Nov 20 5:00 PM, Stonewall, Weather by CustomWeather, © 2014

Note: Actual official high and low records may vary slightly from our data, if they occured in-between our weather recording intervals... More about our weather records

Advertising

Stonewall weather history for previous 24 hours

 ConditionsComfort  
Time TempWeatherWind HumidityBarometerVisibility
5:00 PM
Nov 20
7 °FPassing clouds.12 mph72%30.16 "Hg15 mi
4:00 PM9 °FPassing clouds.9 mph66%30.16 "Hg15 mi
3:00 PM10 °FSunny.7 mph61%30.17 "Hg15 mi
2:00 PM10 °FSunny.5 mph61%30.17 "Hg15 mi
1:00 PM9 °FSunny.No wind61%30.19 "Hg15 mi
12:00 PM7 °FSunny.2 mph61%30.19 "Hg15 mi
11:00 AM3 °FSunny.3 mph72%30.20 "Hg15 mi
10:00 AM1 °FSunny.6 mph71%30.20 "Hg15 mi
9:00 AM-4 °FSunny.7 mph71%30.19 "Hg15 mi
8:00 AM-6 °FSunny.6 mph70%30.17 "Hg15 mi
7:00 AM-9 °FClear.7 mph77%30.16 "Hg15 mi
6:00 AM-8 °FClear.9 mph77%30.14 "Hg15 mi
5:00 AM-4 °FClear.13 mph71%30.12 "Hg15 mi
4:00 AM0 °FClear.14 mph71%30.11 "Hg15 mi
3:00 AM1 °FClear.14 mph65%30.10 "Hg15 mi
2:00 AM1 °FClear.14 mph71%30.09 "Hg15 mi
1:00 AM1 °FClear.14 mph71%30.07 "Hg15 mi
12:00 AM1 °FClear.12 mph71%30.06 "Hg15 mi
11:00 PM
Nov 19
-2 °FClear.12 mph77%30.05 "Hg15 mi
10:00 PM0 °FClear.10 mph71%30.04 "Hg15 mi
9:00 PM3 °FClear.12 mph66%30.03 "Hg15 mi
8:00 PM7 °FClear.15 mph66%30.02 "Hg15 mi
7:00 PM7 °FClear.15 mph66%30.01 "Hg15 mi
Weather by CustomWeather, © 2014

See weather overviewHow to use our weather pages